Tracking 21474 objects as of 26-Sep-2020
HD Live streaming from Space Station
objects crossing your sky now

SL-8 DEB

Track SL-8 DEB now!
10-day predictions


NORAD ID: 5778
Int'l Code: 1971-114C
Perigee: 657.5 km
Apogee: 668.7 km
Inclination: 74.0 °
Period: 97.9 minutes
Semi major axis: 7034 km
RCS: 0.0065 m2 (small)
Launch date: December 17, 1971
Source: Commonwealth of Independent States (former USSR) (CIS)
Launch site: PLESETSK MISSILE AND SPACE COMPLEX (PKMTR)

Note: This is SATELLITE DEBRIS
aabbcc
Your satellite tracking list
Your tracking list is empty




NASA's NSSDC Master Catalog

Two Line Element Set (TLE):
1  5778U 71114C   20269.35680928 +.00000346 +00000-0 +60961-4 0  9990
2  5778 074.0123 151.2839 0007923 027.8417 332.3177 14.71601706590277
Source of the keplerian elements: AFSPC